Location: DaVinci Observatory
(43.1080°N, 78.6453°W)
Time: 20:07:00
(UTC-04:00)

Tiangong 1 - Pass Details

Date: 08 October 2017
Orbit: 294 x 321 km, 42.8° (Epoch: 16 October)

Event Time Altitude Azimuth Distance (km) Brightness Sun altitude
Rises 20:32:05 0° 268° (W) 2,033 6.2 -20.7°
Reaches altitude 10° 20:34:04 10° 268° (W) 1,199 4.7 -21.0°
Enters shadow 20:35:40 31° 266° (W) 567 2.5 -21.3°
